Hourly Weather Bolshie Malamasy

Today, 16 June, Wednesday

Time Temperature Precipitation Wind Pressure Humidity
00:00 +20°C° 0 mm 1 mps 753 mmHg 84%
01:00 +19°C° 0.2 mm 1 mps 752 mmHg 86%
02:00 +19°C° 0.2 mm 1 mps 752 mmHg 88%
03:00 +17°C° 0.2 mm 2 mps 752 mmHg 90%
04:00 +18°C° 0 mm 2 mps 751 mmHg 89%
05:00 +19°C° 0 mm 2 mps 751 mmHg 88%
06:00 +20°C° 0 mm 2 mps 751 mmHg 86%
07:00 +22°C° 0 mm 3 mps 751 mmHg 78%
08:00 +25°C° 0 mm 3 mps 750 mmHg 69%
09:00 +27°C° 0 mm 3 mps 750 mmHg 60%
10:00 +28°C° 0 mm 3 mps 750 mmHg 56%
11:00 +29°C° 0 mm 3 mps 749 mmHg 52%
12:00 +30°C° 0 mm 2 mps 749 mmHg 48%
13:00 +30°C° 0 mm 2 mps 749 mmHg 48%
14:00 +30°C° 0 mm 2 mps 749 mmHg 48%
15:00 +30°C° 0 mm 2 mps 748 mmHg 48%
16:00 +29°C° 0.1 mm 2 mps 748 mmHg 54%
17:00 +29°C° 0.1 mm 3 mps 748 mmHg 61%
18:00 +28°C° 0.1 mm 3 mps 748 mmHg 67%
19:00 +25°C° 1 mm 3 mps 749 mmHg 76%
20:00 +21°C° 1 mm 4 mps 750 mmHg 85%
21:00 +18°C° 1 mm 4 mps 751 mmHg 94%
22:00 +18°C° 0 mm 4 mps 751 mmHg 93%
23:00 +17°C° 0 mm 4 mps 752 mmHg 92%

Tomorrow, 17 June, Thursday

Time Temperature Precipitation Wind Pressure Humidity
00:00 +15°C° 0 mm 4 mps 753 mmHg 92%
01:00 +16°C° 0 mm 3 mps 754 mmHg 93%
02:00 +14°C° 0 mm 3 mps 754 mmHg 94%
03:00 +13°C° 0 mm 3 mps 755 mmHg 96%
04:00 +14°C° 0 mm 3 mps 755 mmHg 93%
05:00 +15°C° 0 mm 2 mps 756 mmHg 89%
06:00 +16°C° 0 mm 2 mps 756 mmHg 86%
07:00 +17°C° 0 mm 3 mps 756 mmHg 77%
08:00 +19°C° 0 mm 3 mps 757 mmHg 67%
09:00 +20°C° 0 mm 3 mps 757 mmHg 57%
10:00 +21°C° 0 mm 4 mps 757 mmHg 51%
11:00 +22°C° 0 mm 4 mps 757 mmHg 45%
12:00 +23°C° 0 mm 4 mps 757 mmHg 39%
13:00 +23°C° 0 mm 4 mps 757 mmHg 40%
14:00 +23°C° 0 mm 4 mps 757 mmHg 41%
15:00 +25°C° 0 mm 4 mps 758 mmHg 42%
16:00 +24°C° 0 mm 3 mps 758 mmHg 48%
17:00 +22°C° 0 mm 3 mps 758 mmHg 53%
18:00 +21°C° 0 mm 3 mps 758 mmHg 59%
19:00 +19°C° 0 mm 2 mps 759 mmHg 61%
20:00 +18°C° 0 mm 2 mps 759 mmHg 64%
21:00 +16°C° 0 mm 2 mps 760 mmHg 66%
22:00 +15°C° 0 mm 2 mps 760 mmHg 69%
23:00 +15°C° 0 mm 2 mps 760 mmHg 73%

Day after tomorrow, 18 June, Friday

Time Temperature Precipitation Wind Pressure Humidity
00:00 +14°C° 0 mm 2 mps 761 mmHg 76%
01:00 +13°C° 0 mm 2 mps 761 mmHg 77%
02:00 +13°C° 0 mm 2 mps 761 mmHg 78%
03:00 +12°C° 0 mm 2 mps 762 mmHg 79%
04:00 +13°C° 0 mm 2 mps 762 mmHg 76%
05:00 +15°C° 0 mm 1 mps 763 mmHg 72%
06:00 +16°C° 0 mm 1 mps 763 mmHg 68%
07:00 +18°C° 0 mm 1 mps 763 mmHg 63%
08:00 +20°C° 0 mm 1 mps 764 mmHg 57%
09:00 +21°C° 0 mm 1 mps 764 mmHg 52%
10:00 +21°C° 0 mm 2 mps 764 mmHg 47%
11:00 +23°C° 0 mm 2 mps 764 mmHg 42%
12:00 +24°C° 0 mm 3 mps 763 mmHg 38%
13:00 +24°C° 0 mm 3 mps 763 mmHg 37%
14:00 +24°C° 0 mm 3 mps 763 mmHg 37%
15:00 +25°C° 0 mm 3 mps 764 mmHg 36%
16:00 +24°C° 0 mm 3 mps 764 mmHg 43%
17:00 +23°C° 0 mm 2 mps 764 mmHg 50%
18:00 +23°C° 0 mm 1 mps 764 mmHg 57%
19:00 +21°C° 0 mm 1 mps 764 mmHg 59%
20:00 +19°C° 0 mm 1 mps 764 mmHg 60%
21:00 +18°C° 0 mm 1 mps 764 mmHg 61%
22:00 +16°C° 0 mm 1 mps 764 mmHg 64%
23:00 +16°C° 0 mm 2 mps 764 mmHg 67%

19 June, Saturday

Time Temperature Precipitation Wind Pressure Humidity
00:00 +15°C° 0 mm 2 mps 764 mmHg 70%
01:00 +15°C° 0 mm 2 mps 764 mmHg 75%
02:00 +15°C° 0 mm 2 mps 764 mmHg 81%
03:00 +14°C° 0 mm 2 mps 764 mmHg 86%
04:00 +16°C° 0 mm 3 mps 764 mmHg 83%
05:00 +17°C° 0 mm 3 mps 764 mmHg 81%
06:00 +19°C° 0 mm 3 mps 764 mmHg 78%
07:00 +20°C° 0 mm 4 mps 764 mmHg 72%
08:00 +22°C° 0 mm 4 mps 763 mmHg 67%
09:00 +25°C° 0 mm 5 mps 763 mmHg 62%
10:00 +26°C° 0 mm 5 mps 763 mmHg 59%
11:00 +27°C° 0 mm 6 mps 762 mmHg 56%
12:00 +28°C° 0 mm 6 mps 762 mmHg 54%
13:00 +28°C° 0 mm 6 mps 762 mmHg 54%
14:00 +29°C° 0 mm 6 mps 761 mmHg 55%
15:00 +29°C° 0 mm 6 mps 761 mmHg 56%
16:00 +28°C° 0 mm 6 mps 761 mmHg 59%
17:00 +28°C° 0 mm 6 mps 761 mmHg 63%
18:00 +27°C° 0 mm 6 mps 760 mmHg 67%
19:00 +25°C° 0 mm 5 mps 761 mmHg 72%
20:00 +23°C° 0 mm 4 mps 761 mmHg 77%
21:00 +22°C° 0 mm 4 mps 761 mmHg 81%
22:00 +21°C° 0 mm 4 mps 761 mmHg 83%
23:00 +20°C° 0 mm 3 mps 761 mmHg 85%

20 June, Sunday

Time Temperature Precipitation Wind Pressure Humidity
00:00 +20°C° 0 mm 3 mps 761 mmHg 87%
01:00 +19°C° 0 mm 3 mps 761 mmHg 89%
02:00 +18°C° 0 mm 3 mps 761 mmHg 91%
03:00 +18°C° 0 mm 2 mps 762 mmHg 92%
04:00 +19°C° 0 mm 2 mps 762 mmHg 88%
05:00 +20°C° 0 mm 3 mps 762 mmHg 83%
06:00 +21°C° 0 mm 3 mps 762 mmHg 78%
07:00 +24°C° 0 mm 3 mps 762 mmHg 72%
08:00 +25°C° 0 mm 3 mps 762 mmHg 66%
09:00 +27°C° 0 mm 3 mps 762 mmHg 59%
10:00 +28°C° 0 mm 3 mps 762 mmHg 55%
11:00 +29°C° 0 mm 3 mps 762 mmHg 51%
12:00 +30°C° 0 mm 3 mps 762 mmHg 47%
13:00 +30°C° 0 mm 2 mps 761 mmHg 52%
14:00 +29°C° 0 mm 2 mps 761 mmHg 57%
15:00 +28°C° 0 mm 2 mps 761 mmHg 61%
16:00 +28°C° 0 mm 2 mps 761 mmHg 65%
17:00 +27°C° 0 mm 2 mps 761 mmHg 68%
18:00 +27°C° 0 mm 2 mps 761 mmHg 71%
19:00 +26°C° 0 mm 2 mps 761 mmHg 74%
20:00 +25°C° 0 mm 2 mps 761 mmHg 77%
21:00 +24°C° 0 mm 2 mps 761 mmHg 79%
22:00 +24°C° 0 mm 2 mps 761 mmHg 79%
23:00 +23°C° 0 mm 2 mps 761 mmHg 78%

21 June, Monday

Time Temperature Precipitation Wind Pressure Humidity
00:00 +23°C° 0 mm 2 mps 760 mmHg 78%
01:00 +21°C° 0 mm 2 mps 760 mmHg 80%
02:00 +21°C° 0 mm 2 mps 760 mmHg 83%
03:00 +20°C° 0 mm 2 mps 760 mmHg 85%
04:00 +21°C° 0 mm 2 mps 760 mmHg 83%
05:00 +23°C° 0 mm 2 mps 760 mmHg 81%
06:00 +24°C° 0 mm 2 mps 760 mmHg 78%
07:00 +25°C° 0 mm 3 mps 760 mmHg 73%
08:00 +27°C° 0 mm 3 mps 760 mmHg 68%
09:00 +28°C° 0 mm 3 mps 760 mmHg 62%
10:00 +29°C° 0.1 mm 4 mps 760 mmHg 57%
11:00 +30°C° 0.1 mm 4 mps 759 mmHg 53%
12:00 +32°C° 0.1 mm 4 mps 759 mmHg 48%
13:00 +32°C° 0 mm 4 mps 759 mmHg 49%
14:00 +32°C° 0 mm 5 mps 758 mmHg 50%
15:00 +32°C° 0 mm 5 mps 758 mmHg 52%
16:00 +30°C° 0 mm 5 mps 758 mmHg 57%
17:00 +29°C° 0 mm 5 mps 758 mmHg 63%
18:00 +28°C° 0 mm 5 mps 757 mmHg 69%
19:00 +26°C° 0.2 mm 4 mps 757 mmHg 73%
20:00 +25°C° 0.2 mm 4 mps 757 mmHg 77%
21:00 +24°C° 0.2 mm 3 mps 757 mmHg 81%
22:00 +22°C° 0 mm 3 mps 757 mmHg 83%
23:00 +21°C° 0 mm 3 mps 757 mmHg 85%
Show more